TimeCST,TemperatureF,Dew PointF,Humidity,Sea Level PressureIn,VisibilityMPH,Wind Direction,Wind SpeedMPH,Gust SpeedMPH,PrecipitationIn,Events,Conditions,WindDirDegrees,DateUTC
12:13 AM,57.2,55.4,94,30.05,10.0,NE,9.2,-,N/A,,Overcast,40,2013-02-12 06:13:00
12:23 AM,57.2,57.2,100,30.04,10.0,NE,8.1,-,N/A,,Overcast,40,2013-02-12 06:23:00
12:38 AM,57.2,57.2,100,30.04,10.0,NE,9.2,-,N/A,,Overcast,50,2013-02-12 06:38:00
12:58 AM,57.7,56.3,95,30.05,10.0,ENE,6.9,-,N/A,,Overcast,70,2013-02-12 06:58:00
1:08 AM,57.2,55.4,94,30.05,10.0,NNE,8.1,-,N/A,,Overcast,30,2013-02-12 07:08:00
1:18 AM,57.2,55.4,94,30.05,10.0,NNE,8.1,-,N/A,,Overcast,30,2013-02-12 07:18:00
1:28 AM,57.2,55.4,94,30.04,10.0,NE,6.9,-,N/A,,Overcast,40,2013-02-12 07:28:00
2:16 AM,57.2,55.4,94,30.03,10.0,NE,11.5,-,N/A,,Overcast,40,2013-02-12 08:16:00
2:58 AM,57.2,55.9,96,30.04,10.0,NE,12.7,-,0.01,,Overcast,40,2013-02-12 08:58:00
3:27 AM,57.2,55.4,94,30.01,10.0,ENE,12.7,-,N/A,,Overcast,60,2013-02-12 09:27:00
3:42 AM,57.2,55.4,94,30.00,10.0,ENE,13.8,-,N/A,,Overcast,60,2013-02-12 09:42:00
3:58 AM,57.2,55.4,94,30.01,10.0,ENE,11.5,-,N/A,,Overcast,60,2013-02-12 09:58:00
4:33 AM,57.2,55.4,94,30.00,10.0,ENE,11.5,-,N/A,,Overcast,60,2013-02-12 10:33:00
4:48 AM,57.2,55.4,94,29.99,10.0,ENE,12.7,-,N/A,,Overcast,60,2013-02-12 10:48:00
4:58 AM,57.0,55.4,94,30.00,10.0,ENE,11.5,-,N/A,,Overcast,60,2013-02-12 10:58:00
5:23 AM,57.2,55.4,94,29.99,10.0,NE,10.4,-,N/A,,Overcast,50,2013-02-12 11:23:00
5:53 AM,57.2,55.4,94,29.98,10.0,ENE,10.4,-,N/A,,Overcast,60,2013-02-12 11:53:00
5:58 AM,57.4,55.8,94,29.98,10.0,ENE,11.5,-,N/A,,Overcast,70,2013-02-12 11:58:00
6:58 AM,57.4,55.4,93,29.99,10.0,ENE,10.4,-,N/A,,Overcast,60,2013-02-12 12:58:00
7:03 AM,57.2,55.4,94,29.97,10.0,ENE,13.8,-,N/A,,Overcast,70,2013-02-12 13:03:00
7:58 AM,57.6,55.8,94,29.96,10.0,ENE,9.2,-,N/A,,Overcast,70,2013-02-12 13:58:00
8:58 AM,57.9,55.9,93,29.98,10.0,ENE,10.4,-,N/A,,Overcast,70,2013-02-12 14:58:00
9:43 AM,59.0,55.4,88,29.97,10.0,ENE,8.1,-,N/A,,Overcast,70,2013-02-12 15:43:00
9:45 AM,59.0,57.2,94,29.97,10.0,East,8.1,-,N/A,Rain,Light Rain,80,2013-02-12 15:45:00
9:58 AM,58.5,56.8,94,29.97,10.0,East,10.4,-,0.00,Rain,Light Rain,90,2013-02-12 15:58:00
10:06 AM,59.0,57.2,94,29.95,10.0,East,11.5,-,N/A,,Overcast,80,2013-02-12 16:06:00
10:31 AM,59.0,57.2,94,29.94,10.0,ENE,11.5,-,N/A,,Overcast,70,2013-02-12 16:31:00
10:55 AM,59.0,57.2,94,29.94,10.0,East,10.4,-,N/A,Rain,Light Rain,80,2013-02-12 16:55:00
10:58 AM,59.0,57.2,94,29.95,9.0,East,10.4,-,0.00,Rain,Light Rain,80,2013-02-12 16:58:00
11:08 AM,59.0,57.2,94,29.94,8.0,East,6.9,-,N/A,Rain,Light Rain,90,2013-02-12 17:08:00
11:14 AM,59.0,57.2,94,29.94,10.0,ESE,6.9,-,N/A,,Overcast,110,2013-02-12 17:14:00
11:58 AM,60.1,58.6,95,29.90,10.0,East,10.4,-,0.01,,Overcast,100,2013-02-12 17:58:00
12:18 PM,60.8,59.0,94,29.87,9.0,ESE,9.2,-,N/A,,Overcast,110,2013-02-12 18:18:00
12:45 PM,60.8,59.0,94,29.85,8.0,East,6.9,-,N/A,Rain,Light Rain,80,2013-02-12 18:45:00
12:50 PM,60.8,60.8,100,29.84,7.0,East,8.1,-,N/A,Rain,Light Rain,80,2013-02-12 18:50:00
12:58 PM,61.3,60.3,96,29.85,8.0,ENE,5.8,-,0.01,Rain,Light Rain,70,2013-02-12 18:58:00
1:13 PM,60.8,60.8,100,29.83,2.0,ENE,6.9,-,N/A,Rain,Light Rain,70,2013-02-12 19:13:00
1:23 PM,62.6,60.8,94,29.83,3.0,East,4.6,-,N/A,Rain,Light Rain,80,2013-02-12 19:23:00
1:38 PM,62.6,60.8,94,29.82,6.0,ESE,6.9,-,N/A,,Light Drizzle,110,2013-02-12 19:38:00
1:39 PM,62.6,60.8,94,29.82,6.0,East,8.1,-,N/A,,Overcast,90,2013-02-12 19:39:00
1:44 PM,62.6,60.8,94,29.81,7.0,ESE,5.8,-,N/A,,Overcast,110,2013-02-12 19:44:00
1:47 PM,62.6,60.8,94,29.81,7.0,SE,6.9,-,N/A,,Light Drizzle,130,2013-02-12 19:47:00
1:48 PM,62.6,60.8,94,29.81,8.0,ESE,5.8,-,N/A,,Overcast,120,2013-02-12 19:48:00
1:51 PM,62.6,60.8,94,29.81,7.0,SE,5.8,-,N/A,Rain,Light Rain,130,2013-02-12 19:51:00
1:58 PM,62.6,61.9,97,29.81,8.0,ESE,6.9,-,0.07,Rain,Light Rain,120,2013-02-12 19:58:00
2:03 PM,62.6,62.6,100,29.80,8.0,SE,6.9,-,N/A,Rain,Light Rain,130,2013-02-12 20:03:00
2:08 PM,62.6,62.6,100,29.80,7.0,SE,5.8,-,N/A,Rain,Light Rain,130,2013-02-12 20:08:00
2:10 PM,62.6,62.6,100,29.80,8.0,ESE,6.9,-,N/A,,Overcast,120,2013-02-12 20:10:00
2:20 PM,64.4,62.6,94,29.80,10.0,ESE,3.5,-,N/A,,Overcast,120,2013-02-12 20:20:00
2:55 PM,64.4,62.6,94,29.80,2.0,NW,4.6,-,N/A,,Overcast,320,2013-02-12 20:55:00
2:58 PM,63.7,62.8,97,29.80,7.0,Variable,3.5,-,0.01,,Overcast,0,2013-02-12 20:58:00
3:13 PM,66.2,66.2,100,29.78,3.0,SSW,8.1,-,N/A,,Overcast,210,2013-02-12 21:13:00
3:38 PM,68.0,66.2,94,29.77,2.0,SSW,16.1,-,N/A,,Overcast,210,2013-02-12 21:38:00
3:43 PM,68.0,66.2,94,29.77,5.0,SSW,16.1,24.2,N/A,,Overcast,210,2013-02-12 21:43:00
3:58 PM,66.2,66.2,100,29.78,2.0,SSW,12.7,-,N/A,,Overcast,210,2013-02-12 21:58:00
4:55 PM,66.2,66.2,100,29.77,2.0,SSW,15.0,-,N/A,,Overcast,210,2013-02-12 22:55:00
5:55 PM,66.2,66.2,100,29.77,2.0,SSW,16.1,-,N/A,,Overcast,210,2013-02-12 23:55:00
6:40 PM,66.2,66.2,100,29.77,3.0,SW,12.7,-,N/A,,Overcast,220,2013-02-13 00:40:00
6:55 PM,66.2,66.2,100,29.78,3.0,SW,11.5,-,N/A,,Overcast,220,2013-02-13 00:55:00
7:55 PM,68.0,68.0,100,29.80,4.0,WSW,15.0,-,N/A,,Overcast,240,2013-02-13 01:55:00
8:55 PM,68.0,66.2,94,29.79,6.0,WSW,9.2,-,N/A,,Overcast,240,2013-02-13 02:55:00
9:50 PM,66.2,66.2,100,29.79,1.0,SW,9.2,-,N/A,,Overcast,230,2013-02-13 03:50:00
9:55 PM,66.2,66.2,100,29.80,2.0,WSW,9.2,-,N/A,,Overcast,240,2013-02-13 03:55:00
10:32 PM,66.2,66.2,100,29.81,2.0,WSW,8.1,-,N/A,,Overcast,240,2013-02-13 04:32:00
10:53 PM,66.2,66.2,100,29.80,6.0,WSW,6.9,-,N/A,,Partly Cloudy,240,2013-02-13 04:53:00
10:58 PM,66.2,66.2,100,29.81,6.0,WSW,6.9,-,N/A,,Partly Cloudy,240,2013-02-13 04:58:00
11:03 PM,66.2,66.2,100,29.81,7.0,WSW,6.9,-,N/A,,Clear,240,2013-02-13 05:03:00
11:28 PM,64.4,64.4,100,29.80,5.0,SW,9.2,-,N/A,,Scattered Clouds,220,2013-02-13 05:28:00
11:33 PM,64.4,64.4,100,29.80,4.0,SW,6.9,-,N/A,,Scattered Clouds,220,2013-02-13 05:33:00
11:53 PM,64.4,64.4,100,29.79,4.0,West,3.5,-,N/A,,Mostly Cloudy,260,2013-02-13 05:53:00
11:58 PM,64.9,64.4,98,29.80,4.0,West,3.5,-,N/A,,Mostly Cloudy,260,2013-02-13 05:58:00